• In Kazakhstan
  • List of Countries
  • For 7 days
  • Water Temperature
  • Satellite Maps
  • Weather Map
  • News
  • Weather Widgets
  • user-avatar
    Login

    Hourly Weather Kuznia

    Today, 18 February, Monday

    Time Temperature Precipitation Wind Pressure Humidity
    00:00 +4°C° 0 mm 2 mps 748 mmHg 75%
    01:00 +3°C° 0 mm 2 mps 747 mmHg 77%
    02:00 +3°C° 0 mm 2 mps 747 mmHg 77%
    03:00 +3°C° 0 mm 2 mps 747 mmHg 77%
    04:00 +2°C° 0 mm 2 mps 747 mmHg 77%
    05:00 +2°C° 0 mm 2 mps 747 mmHg 77%
    06:00 +2°C° 0 mm 2 mps 747 mmHg 76%
    07:00 +2°C° 0 mm 2 mps 747 mmHg 76%
    08:00 +3°C° 0 mm 2 mps 747 mmHg 70%
    09:00 +5°C° 0 mm 2 mps 746 mmHg 64%
    10:00 +6°C° 0 mm 2 mps 746 mmHg 58%
    11:00 +8°C° 0 mm 2 mps 746 mmHg 54%
    12:00 +9°C° 0 mm 2 mps 746 mmHg 49%
    13:00 +12°C° 0 mm 2 mps 746 mmHg 45%
    14:00 +12°C° 0 mm 2 mps 745 mmHg 48%
    15:00 +12°C° 0 mm 2 mps 745 mmHg 50%
    16:00 +10°C° 0 mm 2 mps 745 mmHg 53%
    17:00 +9°C° 0 mm 2 mps 745 mmHg 58%
    18:00 +8°C° 0 mm 2 mps 745 mmHg 64%
    19:00 +7°C° 0 mm 2 mps 744 mmHg 69%
    20:00 +5°C° 0 mm 3 mps 744 mmHg 70%
    21:00 +4°C° 0 mm 3 mps 744 mmHg 71%
    22:00 +4°C° 0 mm 3 mps 744 mmHg 72%
    23:00 +3°C° 0 mm 3 mps 744 mmHg 73%

    Tomorrow, 19 February, Tuesday

    Time Temperature Precipitation Wind Pressure Humidity
    00:00 +3°C° 0 mm 3 mps 744 mmHg 74%
    01:00 +3°C° 0 mm 3 mps 744 mmHg 75%
    02:00 +3°C° 0 mm 3 mps 743 mmHg 76%
    03:00 +2°C° 0 mm 3 mps 743 mmHg 77%
    04:00 +2°C° 0 mm 3 mps 743 mmHg 77%
    05:00 +2°C° 0 mm 3 mps 743 mmHg 78%
    06:00 +2°C° 0 mm 3 mps 743 mmHg 78%
    07:00 +2°C° 0 mm 3 mps 742 mmHg 79%
    08:00 +3°C° 0 mm 3 mps 742 mmHg 73%
    09:00 +5°C° 0 mm 4 mps 742 mmHg 67%
    10:00 +6°C° 0 mm 4 mps 742 mmHg 61%
    11:00 +7°C° 0 mm 4 mps 742 mmHg 59%
    12:00 +8°C° 0 mm 4 mps 742 mmHg 56%
    13:00 +10°C° 0 mm 4 mps 741 mmHg 53%
    14:00 +10°C° 0 mm 4 mps 741 mmHg 54%
    15:00 +10°C° 0 mm 3 mps 741 mmHg 54%
    16:00 +10°C° 0 mm 3 mps 741 mmHg 55%
    17:00 +9°C° 0 mm 3 mps 741 mmHg 60%
    18:00 +7°C° 0 mm 3 mps 741 mmHg 65%
    19:00 +6°C° 0 mm 2 mps 741 mmHg 71%
    20:00 +5°C° 0.3 mm 3 mps 742 mmHg 74%
    21:00 +5°C° 0.3 mm 3 mps 742 mmHg 77%
    22:00 +5°C° 0.3 mm 3 mps 742 mmHg 80%
    23:00 +5°C° 0.4 mm 3 mps 742 mmHg 82%

    Day after tomorrow, 20 February, Wednesday

    Time Temperature Precipitation Wind Pressure Humidity
    00:00 +4°C° 0.4 mm 3 mps 742 mmHg 85%
    01:00 +4°C° 0.4 mm 3 mps 742 mmHg 87%
    02:00 +3°C° 0 mm 3 mps 743 mmHg 87%
    03:00 +3°C° 0 mm 3 mps 743 mmHg 87%
    04:00 +2°C° 0 mm 3 mps 743 mmHg 87%
    05:00 +2°C° 0 mm 3 mps 743 mmHg 86%
    06:00 +2°C° 0 mm 3 mps 744 mmHg 86%
    07:00 +2°C° 0 mm 3 mps 744 mmHg 85%
    08:00 +3°C° 0 mm 4 mps 744 mmHg 81%
    09:00 +4°C° 0 mm 4 mps 745 mmHg 77%
    10:00 +5°C° 0 mm 5 mps 745 mmHg 73%
    11:00 +5°C° 0 mm 5 mps 745 mmHg 70%
    12:00 +6°C° 0 mm 5 mps 745 mmHg 66%
    13:00 +6°C° 0 mm 5 mps 745 mmHg 63%
    14:00 +6°C° 0 mm 5 mps 745 mmHg 63%
    15:00 +6°C° 0 mm 4 mps 745 mmHg 63%
    16:00 +6°C° 0 mm 4 mps 745 mmHg 64%
    17:00 +5°C° 0 mm 3 mps 746 mmHg 67%
    18:00 +5°C° 0 mm 3 mps 746 mmHg 71%
    19:00 +6°C° 0 mm 2 mps 746 mmHg 74%
    20:00 +5°C° 0 mm 2 mps 747 mmHg 76%
    21:00 +5°C° 0 mm 2 mps 747 mmHg 77%
    22:00 +4°C° 0 mm 3 mps 747 mmHg 78%
    23:00 +5°C° 0 mm 2 mps 747 mmHg 79%

    21 February, Thursday

    Time Temperature Precipitation Wind Pressure Humidity
    00:00 +5°C° 0 mm 2 mps 747 mmHg 80%
    01:00 +4°C° 0 mm 2 mps 747 mmHg 81%
    02:00 +4°C° 0 mm 2 mps 747 mmHg 82%
    03:00 +4°C° 0 mm 2 mps 747 mmHg 83%
    04:00 +4°C° 0 mm 2 mps 747 mmHg 84%
    05:00 +4°C° 0.1 mm 2 mps 746 mmHg 84%
    06:00 +4°C° 0.1 mm 2 mps 746 mmHg 84%
    07:00 +3°C° 0.1 mm 3 mps 746 mmHg 84%
    08:00 +3°C° 0.2 mm 3 mps 746 mmHg 82%
    09:00 +4°C° 0.2 mm 3 mps 747 mmHg 80%
    10:00 +5°C° 0.2 mm 3 mps 747 mmHg 77%
    11:00 +5°C° 0.4 mm 3 mps 746 mmHg 77%
    12:00 +5°C° 0.4 mm 3 mps 746 mmHg 78%
    13:00 +5°C° 0.4 mm 3 mps 746 mmHg 78%
    14:00 +5°C° 1 mm 3 mps 746 mmHg 81%
    15:00 +5°C° 1 mm 3 mps 746 mmHg 84%
    16:00 +6°C° 1 mm 2 mps 746 mmHg 87%
    17:00 +5°C° 0.7 mm 3 mps 746 mmHg 88%
    18:00 +5°C° 0.7 mm 3 mps 746 mmHg 90%
    19:00 +5°C° 0.7 mm 3 mps 747 mmHg 91%
    20:00 +5°C° 0.3 mm 3 mps 747 mmHg 92%
    21:00 +5°C° 0.3 mm 4 mps 748 mmHg 93%
    22:00 +5°C° 0.3 mm 4 mps 748 mmHg 94%
    23:00 +5°C° 0 mm 4 mps 749 mmHg 93%

    22 February, Friday

    Time Temperature Precipitation Wind Pressure Humidity
    00:00 +5°C° 0 mm 3 mps 749 mmHg 92%
    01:00 +5°C° 0 mm 3 mps 750 mmHg 91%
    02:00 +4°C° 0 mm 3 mps 750 mmHg 92%
    03:00 +4°C° 0 mm 4 mps 750 mmHg 93%
    04:00 +4°C° 0 mm 4 mps 751 mmHg 93%
    05:00 +4°C° 0.1 mm 4 mps 751 mmHg 93%
    06:00 +4°C° 0.1 mm 4 mps 752 mmHg 93%
    07:00 +4°C° 0.1 mm 4 mps 753 mmHg 93%
    08:00 +4°C° 0 mm 4 mps 753 mmHg 90%
    09:00 +4°C° 0 mm 4 mps 754 mmHg 86%
    10:00 +4°C° 0 mm 4 mps 754 mmHg 83%
    11:00 +4°C° 0 mm 3 mps 755 mmHg 77%
    12:00 +5°C° 0 mm 3 mps 755 mmHg 72%
    13:00 +5°C° 0 mm 3 mps 756 mmHg 67%
    14:00 +5°C° 0 mm 3 mps 756 mmHg 61%
    15:00 +5°C° 0 mm 3 mps 757 mmHg 55%
    16:00 +5°C° 0 mm 3 mps 757 mmHg 49%
    17:00 +4°C° 0 mm 3 mps 757 mmHg 51%
    18:00 +4°C° 0 mm 2 mps 758 mmHg 53%
    19:00 +3°C° 0 mm 2 mps 759 mmHg 55%
    20:00 +2°C° 0 mm 2 mps 759 mmHg 57%
    21:00 +2°C° 0 mm 2 mps 759 mmHg 59%
    22:00 +1°C° 0 mm 2 mps 760 mmHg 61%
    23:00 +1°C° 0 mm 2 mps 760 mmHg 61%

    23 February, Saturday

    Time Temperature Precipitation Wind Pressure Humidity
    00:00 -1°C° 0 mm 2 mps 760 mmHg 62%
    01:00 -1°C° 0 mm 2 mps 760 mmHg 63%
    02:00 -1°C° 0 mm 2 mps 760 mmHg 62%
    03:00 +1°C° 0 mm 1 mps 760 mmHg 61%
    04:00 +1°C° 0 mm 1 mps 759 mmHg 61%
    05:00 +1°C° 0 mm 1 mps 759 mmHg 59%
    06:00 +1°C° 0 mm 1 mps 759 mmHg 58%
    07:00 +1°C° 0 mm 1 mps 760 mmHg 56%
    08:00 +2°C° 0 mm 1 mps 760 mmHg 50%
    09:00 +3°C° 0 mm 1 mps 760 mmHg 44%
    10:00 +5°C° 0 mm 1 mps 760 mmHg 38%
    11:00 +5°C° 0 mm 2 mps 759 mmHg 38%
    12:00 +6°C° 0 mm 2 mps 759 mmHg 37%
    13:00 +7°C° 0 mm 2 mps 758 mmHg 36%
    14:00 +7°C° 0 mm 2 mps 758 mmHg 41%
    15:00 +9°C° 0 mm 1 mps 758 mmHg 45%
    16:00 +9°C° 0 mm 1 mps 757 mmHg 50%
    17:00 +8°C° 0 mm 1 mps 757 mmHg 56%
    18:00 +7°C° 0 mm 1 mps 757 mmHg 62%
    19:00 +6°C° 0 mm 1 mps 757 mmHg 68%
    20:00 +6°C° 0 mm 1 mps 757 mmHg 73%
    21:00 +4°C° 0 mm 2 mps 757 mmHg 78%
    22:00 +4°C° 0 mm 2 mps 757 mmHg 83%
    23:00 +4°C° 0 mm 2 mps 756 mmHg 85%
    Show more